COSMOS 864

Satellite information

Favourite Embed

Satellite Type and Status

PAYLOADIN ORBIT

Key statistics

Satellite COSMOS 864 at a glance.

Uptime

17784

Days in orbit

Revolutions

≈ 13.8

Per day

Orbit

LEO

Low Earth Orbit

Inclination

82.9

Latest

Satellite identification and parameters

Extended collection of information and parameters for COSMOS 864.

Object identification

Identified? True

Debris? False

Object name: COSMOS 864

International designator: 1976-108A

Object number (NORAD): 9509

Object ID (CCSDS): 9509

Country: COMMONWEALTH OF INDEPENDENT STATES (CIS)

Current information (Y/N): Y

RCS size: LARGE

Orbital parameters

Period: 104.686 minutes

Inclination: 82.9394 deg

SMA: 7357.864 km

Apoapsis: 1002.281 km

Periapsis: 957.177 km

RAAN: 45.8876 deg

Eccentricy: 0.003065

Argument of periapsis: 31.8298 deg

Mean anomaly: 21.4974 deg

Mean motion: 13.75545981 rev/day

Mean motion (dot): 0.0000005 rev/day2

B* drag term: 0.000036386 1/REarth

Two-line elements (TLE)

Creation date: July 6, 2025, 6:05 p.m.

Reference frame: TEME

Reference center: EARTH

Epoch: July 6, 2025, 2:50 p.m. UTC

TLE line 0: 0 COSMOS 864

TLE line 1: 1 09509U 76108A 25187.61866111 .00000050 00000-0 36386-4 0 9993

TLE line 2: 2 09509 82.9394 45.8876 0030650 31.8298 21.4974 13.75545981442930

Live tracking on map

Real-time ground track for satellite COSMOS 864.

In-orbit conjunctions

There are no conjunctions computed for COSMOS 864, at the moment. Check back to stay up to date, as we update our databases every day.

Go to all conjunctions

Associated space launch

Navigation satellite providing location information for the Tsiklon-B navigation system

COSMOS 864 was lifted into orbit during the mission ‘Kosmos-3M | Parus 6’, on board a Kosmos-3M space rocket.

The launch took place on Oct. 29, 1976, 12:39 p.m. from 132/2.

For more information about the launch, click the button.

Launch to space Kosmos-3M | Parus 6
Kosmos-3M | Parus 6

Agency: N/A

Status: Launch Successful

Launch date: Oct. 29, 1976, 12:39 p.m. UTC

Rocket: Kosmos-3M

Launch pad: 132/2

Location: Plesetsk Cosmodrome, Russian Federation

...

Latest news about this satellite

There are no fresh news available about this satellite. Check back as we update our databases every day.


Newsletter sign-up

Weekly statistics, charts and insights to help you stay on top of the space industry.